DW7658 Weather Reports


time (UTC)temp
C
wind
direction
speed
KPH
gust
KPH
rain 1hr
cm
rain 24hr
cm
rain mn
cm
humidity
%
barometer
mb
20260901023016 23 354 0.0 0.0 0.00 0.08 0.00 87 1011.7
20260901021514 23 354 0.0 0.0 0.00 0.08 0.00 87 1011.7
20260901020032 23 354 0.0 0.0 0.00 0.08 0.00 86 1011.5
20260901014510 23 354 0.0 0.0 0.00 0.08 0.00 86 1011.5
20260901013007 24 354 0.0 0.0 0.00 0.08 0.00 85 1011.4
20260901011502 25 354 0.0 0.0 0.00 0.08 0.00 84 1011.3
20260901010058 25 354 0.0 0.0 0.00 0.08 0.00 83 1011.2
20260901004542 26 354 0.0 0.0 0.00 0.08 0.08 83 1010.9
20260901003044 26 354 0.0 0.0 0.00 0.08 0.08 80 1010.6
20260901001526 27 354 0.0 0.0 0.00 0.08 0.08 79 1010.4
20260901000020 27 354 0.0 0.0 0.00 0.08 0.08 76 1010.2
20260831234503 28 354 0.0 0.0 0.00 0.08 0.08 76 1009.8
20260831233003 28 354 0.0 0.0 0.00 0.08 0.08 73 1009.8
20260831231545 29 354 0.0 0.0 0.00 0.08 0.08 73 1009.6
20260831230045 30 348 0.0 0.0 0.00 0.08 0.08 71 1009.7
20260831224524 30 348 0.0 0.0 0.00 0.08 0.08 69 1010.0
20260831223023 31 348 0.0 0.0 0.00 0.08 0.08 66 1010.2
20260831221504 31 11 0.0 0.0 0.00 0.08 0.08 64 1010.3
20260831220006 32 74 0.0 1.6 0.00 0.08 0.08 62 1010.4
20260831214547 32 73 0.0 1.6 0.00 0.08 0.08 62 1010.6
20260831213042 33 84 0.0 1.6 0.00 0.08 0.08 61 1010.7
20260831211523 33 84 0.0 3.2 0.00 0.08 0.08 59 1010.8
20260831210022 33 105 0.0 1.6 0.00 0.08 0.08 60 1011.0
20260831204509 33 109 0.0 1.6 0.00 0.08 0.08 59 1011.0
20260831203001 33 249 0.0 1.6 0.00 0.08 0.08 58 1011.2
20260831201549 33 47 0.0 1.6 0.00 0.08 0.08 59 1011.3
20260831200045 33 100 0.0 3.2 0.00 0.08 0.08 64 1011.6
20260831194540 32 360 0.0 3.2 0.00 0.08 0.08 63 1011.6
20260831193026 32 1 0.0 3.2 0.08 0.08 0.08 67 1011.7
20260831191506 32 37 0.0 3.2 0.08 0.08 0.08 71 1012.0
20260831190006 31 25 0.0 0.0 0.08 0.08 0.08 79 1012.2
20260831184610 32 1 0.0 1.6 0.08 0.08 0.08 71 1012.4
20260831183059 35 165 0.0 3.2 0.00 0.00 0.00 56 1012.3
20260831181530 33 62 0.0 6.4 0.00 0.00 0.00 58 1012.4
20260831180034 36 253 0.0 3.2 0.00 0.00 0.00 54 1012.6
20260831174509 36 124 0.0 4.8 0.00 0.00 0.00 55 1012.7
20260831173007 35 233 0.0 6.4 0.00 0.00 0.00 60 1012.7
20260831171548 35 26 0.0 1.6 0.00 0.00 0.00 60 1012.8
20260831170052 35 284 0.0 4.8 0.00 0.00 0.00 56 1012.9
20260831164536 35 314 0.0 6.4 0.00 0.00 0.00 59 1013.0
20260831163036 35 287 1.6 6.4 0.00 0.00 0.00 57 1013.1
20260831161529 34 121 0.0 4.8 0.00 0.00 0.00 59 1013.0
20260831160031 33 302 0.0 6.4 0.00 0.00 0.00 60 1013.0
20260831154528 33 310 0.0 3.2 0.00 0.00 0.00 63 1013.1
20260831153027 33 317 0.0 4.8 0.00 0.00 0.00 63 1013.0
20260831151524 33 77 0.0 0.0 0.00 0.00 0.00 63 1013.0
20260831150020 32 5 0.0 0.0 0.00 0.00 0.00 65 1013.2
20260831144500 32 314 0.0 0.0 0.00 0.00 0.00 65 1013.0
20260831143057 31 42 0.0 0.0 0.00 0.00 0.00 70 1013.1
20260831141555 31 5 0.0 0.0 0.00 0.00 0.00 70 1012.9
20260831140033 30 45 0.0 0.0 0.00 0.00 0.00 72 1013.0
20260831134529 28 335 0.0 0.0 0.00 0.00 0.00 76 1013.0
20260831133007 26 173 0.0 0.0 0.00 0.00 0.00 82 1013.0
20260831131504 25 4 0.0 0.0 0.00 0.00 0.00 84 1013.1
20260831130048 23 173 0.0 0.0 0.00 0.00 0.00 86 1013.1
20260831124538 22 178 0.0 0.0 0.00 0.00 0.00 86 1012.9
20260831123016 22 115 0.0 0.0 0.00 0.00 0.00 86 1012.8
20260831121517 -17 0.0 0.0 0.00 0.00 0.00 1012.7
20260831120050 -17 0.0 0.0 0.00 0.00 0.00 1012.7
20260831114547 -17 0.0 0.0 0.00 0.00 0.00 1012.5
20260831113025 -17 0.0 0.0 0.00 0.00 0.00 1012.5
20260831111519 -17 0.0 0.0 0.00 0.00 0.00 1012.3
20260831110138 -17 0.0 0.0 0.00 0.00 0.00 1012.2
20260831104555 -17 0.0 0.0 0.00 0.00 0.00 1012.1
20260831103032 -17 0.0 0.0 0.00 0.00 0.00 1012.0
20260831101529 -17 0.0 0.0 0.00 0.00 0.00 1012.0
20260831100014 -17 0.0 0.0 0.00 0.00 0.00 1011.8
20260831094517 -17 0.0 0.0 0.00 0.00 0.00 1011.7
20260831093005 -17 0.0 0.0 0.00 0.00 0.00 1011.9
20260831091603 -17 0.0 0.0 0.00 0.00 0.00 1011.8
20260831090056 -17 0.0 0.0 0.00 0.00 0.00 1011.6
20260831084602 -17 0.0 0.0 0.00 0.00 0.00 1011.6
20260831083049 -17 0.0 0.0 0.00 0.00 0.00 1011.5
20260831081558 -17 0.0 0.0 0.00 0.00 0.00 1011.3
20260831080020 -17 0.0 0.0 0.00 0.00 0.00 1011.3
20260831074532 -17 0.0 0.0 0.00 0.00 0.00 1011.5
20260831073137 -17 0.0 0.0 0.00 0.00 0.00 1011.5
20260831071550 -17 0.0 0.0 0.00 0.00 0.00 1011.8
20260831070032 -17 0.0 0.0 0.00 0.00 0.00 1011.8
20260831064533 -17 0.0 0.0 0.00 0.00 0.00 1012.0
20260831063001 -17 0.0 0.0 0.00 0.00 0.00 1012.1
20260831061558 -17 0.0 0.0 0.00 0.00 0.00 1012.0
20260831060043 -17 0.0 0.0 0.00 0.00 0.00 1012.1
20260831054538 -17 0.0 0.0 0.00 0.00 0.00 1012.1
20260831053019 -17 0.0 0.0 0.00 0.00 0.00 1012.0
20260831051513 -17 0.0 0.0 0.00 0.00 0.00 1012.1
20260831050053 -17 0.0 0.0 0.00 0.00 0.00 1012.1
20260831044541 -17 0.0 0.0 0.00 0.00 0.00 1012.0
20260831043019 -17 0.0 0.0 0.00 0.00 0.00 1011.9
20260831041514 -17 0.0 0.0 0.00 0.00 0.00 1012.1
20260831040055 -17 0.0 0.0 0.00 0.00 0.00 1012.1
20260831034549 -17 0.0 0.0 0.00 0.00 0.00 1012.2
20260831033032 -17 0.0 0.0 0.00 0.00 0.00 1012.3
20260831031528 -17 0.0 0.0 0.00 0.00 0.00 1012.3
20260831030039 -17 0.0 0.0 0.00 0.00 0.00 1012.4
20260831024520 -17 0.0 0.0 0.00 0.00 0.00 1012.3